Погода в Труновском

Россия / Ставропольский край     45°28′49″N   42°08′20″E
темп.,
°C
ветер,
м/с
пор.,
м/с
влажн.,
%
обл.,
%
осадки,
мм/ч
давл.,
гПа
погр.,
м
13 апреля, вт
вт1300:00+8з3693100 0.0 1023274
03:00+8юз3595100 0.0 1023170
06:00+8зсз2493100 0.0 1022161
09:00+10зсз2185100 0.0 1023493
12:00+11ссз1181100 0.1 1022463
15:00+10зсз3493100 0.6 1022190
18:00+9з4696100 0.1 1022286
21:00+8з3597100 0.1 1022179
14 апреля, ср
ср1400:00+8зсз2498100 0.0 1020123
03:00+7з3499100 0.0 101996
06:00+8з3698100 0.0 1019230
09:00+9з5695100 0.0 1018415
12:00+11з5686100 0.1 1017731
15:00+13з567394 0.1 1016754
18:00+12з488199 0.3 1017287
21:00+10зюз4889100 0.3 1017188
15 апреля, чт
чт1500:00+8з4894100 0.0 1017166
03:00+8з489599 0.0 1017157
06:00+7з369699 0.0 1017136
09:00+12з45740 0.0 1017473
12:00+16зсз45540 0.0 10161174
15:00+18зсз45430 0.0 10161596
18:00+15сз235795 0.0 101645
21:00+11з11633 0.0 101710
16 апреля, пт
пт1600:00+11ююз22645 0.0 101610
03:00+10ююз22705 0.0 101611
06:00+10ююз1173100 0.0 101610
09:00+16в22565 0.0 1016443
12:00+19вюв334661 0.0 10151631
15:00+20в344297 0.0 10141973
18:00+17ююв4658100 0.1 101497
21:00+12зсз349582 3.8 1017155
17 апреля, сб
сб1700:00+11сз229196 0.1 101763
03:00+10зсз61295100 4.1 1019838
06:00+9зсз4796100 0.8 1020363
09:00+10зсз4582100 1.9 1021640
12:00+11з4471100 0.2 1021802
15:00+14з4660100 0.2 10211522
18:00+12юз3570100 0.0 1021152
21:00+9ссв227998 0.0 102216